Dewpoint
18 14 15 18 35 41 41 40 28 31 37 41 48 50 57 55 57 60 62 64 65 65 65 67 67 69 69 70 70 69 69 69 71 73 72 73 73 74 74 73 72 72 71 71
25 21 19 17 25 41 39 34 37 35 35 50 55 59 60 56 58 59 60 61 63 64 65 65 67 67 68 70 73 73 72 71 74 75 73 73 74 73 74 73 73 73 73 71
28 24 27 26 23 29 32 29 41 38 39 56 55 59 60 61 59 62 59 60 61 66 66 66 67 69 69 71 72 72 72 71 72 72 73 73 72 75 75 75 75 73 73 72
25 27 27 30 38 40 38 30 39 44 37 53 57 60 60 61 62 62 64 65 64 66 68 68 68 69 69 70 70 70 72 71 72 72 72 73 73 73 74 74 73 73 71 70
29 29 33 28 36 37 37 32 33 35 39 54 59 59 58 59 60 60 61 62 63 65 68 68 68 68 67 68 68 69 70 70 71 70 70 70 71 71 71 72 71 70 67 64
30 32 34 37 44 46 49 33 38 37 39 46 56 52 57 59 60 60 60 61 61 62 65 67 68 68 66 66 67 66 67 69 70 71 71 70 71 72 71 71 69 63 61 59
29 30 35 36 43 41 37 43 50 41 42 55 59 59 59 60 60 59 59 60 60 59 61 61 64 68 68 67 66 67 68 68 67 67 68 68 68 68 65 61 60 58 58 57
35 37 36 40 40 37 49 49 53 57 59 59 58 59 59 59 59 59 59 59 59 58 57 59 61 62 62 63 65 67 66 66 66 66 66 66 64 62 61 60 59 57 55 54
37 41 47 46 44 47 48 50 51 58 59 58 56 57 58 58 59 59 58 57 57 56 55 56 58 59 57 59 61 62 62 61 61 62 62 63 65 63 62 61 59 58 57 56
39 46 42 44 46 46 50 53 57 57 58 55 56 57 57 58 58 58 57 57 57 55 54 54 56 57 57 58 59 58 58 58 57 58 61 63 61 61 63 62 61 60 59 57
37 37 43 46 48 52 53 56 55 56 55 55 56 56 57 58 58 57 58 57 57 56 54 54 55 57 55 55 54 52 52 54 54 53 53 53 55 57 57 53 58 61 61 60
37 40 51 50 52 54 54 53 53 53 54 55 56 56 57 56 56 56 56 55 53 51 50 52 52 53 56 54 54 52 47 45 48 50 48 47 46 45 42 46 46 46 47 52
39 40 49 49 51 54 53 53 53 53 54 53 53 53 53 53 53 52 51 51 51 52 53 54 55 55 56 56 57 57 52 55 47 46 46 48 48 45 41 38 38 38 39 40
38 43 46 44 45 48 52 52 55 53 53 53 52 52 52 53 54 52 51 52 53 53 54 55 55 55 57 58 58 57 54 51 49 48 48 48 48 47 45 46 45 41 37 40
39 40 43 44 46 47 50 51 53 54 54 53 53 53 53 54 54 55 55 55 55 55 56 57 57 58 59 59 59 58 54 53 52 51 51 51 51 51 48 48 48 47 48 38
40 38 40 42 46 46 45 48 51 53 55 54 55 54 54 54 55 55 55 55 55 57 58 58 58 58 58 58 58 55 54 55 54 53 51 51 49 48 46 48 49 48 47 47
40 40 41 42 45 46 45 46 46 49 52 53 55 57 57 55 55 57 58 58 59 58 58 57 56 56 55 53 52 48 44 47 50 42 43 44 44 43 43 44 43 43 42 46
42 41 42 44 45 46 44 45 48 49 53 57 57 57 57 57 57 57 57 57 55 53 54 54 53 52 50 48 44 38 36 36 36 38 39 41 42 40 38 40 41 41 40 44
43 41 41 42 43 46 45 46 48 50 53 56 58 58 57 58 57 57 53 52 52 52 51 48 42 47 48 46 47 38 37 38 38 39 41 43 42 41 40 40 41 41 40 39
42 42 43 43 43 44 46 48 49 52 55 56 57 57 57 56 56 53 53 52 50 45 46 42 46 45 47 45 47 38 39 38 40 40 40 39 40 40 40 40 40 39 39 39
43 44 45 46 45 46 46 49 50 54 55 55 55 57 57 56 53 54 53 45 48 46 45 46 43 40 41 41 41 37 38 39 41 41 41 40 41 39 40 40 39 38 38 39
46 46 46 47 47 48 48 49 51 54 54 55 56 56 55 54 54 53 51 47 44 47 41 42 41 47 40 44 39 38 40 42 41 42 41 41 40 39 38 39 40 41 42 43
46 47 47 49 49 50 50 51 52 54 55 57 56 56 54 50 49 46 44 48 41 43 42 40 44 48 48 45 43 42 42 43 41 39 39 40 37 38 39 40 42 43 44 46
51 53 52 51 50 51 53 54 53 56 58 59 57 56 53 48 47 45 45 44 44 43 41 39 42 48 48 43 43 43 43 43 43 43 41 41 38 37 38 40 42 43 44 44
53 52 53 53 53 50 54 55 54 56 57 57 56 55 53 48 46 43 42 40 43 42 40 47 47 47 44 41 41 43 43 44 43 45 42 43 41 40 40 41 41 43 44 46
54 50 50 55 50 50 51 52 51 53 53 52 53 52 48 46 45 42 43 41 37 42 40 41 41 42 44 43 43 43 41 42 42 46 42 43 43 43 42 43 42 42 42 41
54 49 50 51 51 50 50 51 50 51 51 50 50 50 47 45 44 41 42 39 35 35 37 39 38 41 41 42 41 41 41 40 41 38 42 44 45 44 43 43 43 43 44 43
Lifted_Index
2 1 1 0 -0 -0 -1 -1 -1 -1 -1 -2 -2 -4 -5 -6 -5 -4 -3 -3 -2 -2 -2 -2 -3 -3 -3 -4 -4 -4 -4 -4 -4 -4 -4 -4 -4 -4 -4 -4 -4 -4 -3 -3
1 0 0 -0 -0 -0 -1 -1 -1 -1 -1 -3 -4 -5 -6 -6 -5 -4 -4 -4 -3 -3 -2 -2 -2 -3 -3 -3 -4 -4 -4 -4 -4 -4 -4 -4 -4 -4 -4 -4 -4 -4 -3 -3
-0 -1 -1 -1 -1 -0 -1 -1 -1 -1 -2 -4 -5 -6 -6 -5 -5 -4 -4 -4 -4 -3 -2 -2 -2 -2 -2 -3 -3 -4 -4 -4 -4 -4 -4 -4 -4 -4 -4 -4 -4 -3 -3 -3
-1 -1 -1 -1 -1 -1 -1 -1 -0 -0 -2 -4 -6 -6 -5 -4 -4 -3 -3 -4 -3 -3 -3 -2 -1 -1 -1 -2 -2 -3 -3 -4 -4 -4 -4 -4 -4 -4 -4 -3 -3 -2 -2 -2
-1 -1 -2 -1 -1 -1 -1 -1 -1 -1 -2 -4 -6 -5 -4 -3 -3 -2 -2 -2 -2 -2 -3 -2 -1 -1 -1 -1 -1 -2 -2 -2 -3 -3 -3 -3 -3 -3 -3 -2 -2 -1 -1 -0
-2 -2 -1 -1 -1 -1 -1 -2 -2 -2 -2 -4 -5 -5 -4 -2 -2 -2 -2 -1 -1 -2 -2 -2 -2 -1 -0 -0 -0 -0 -1 -1 -1 -2 -2 -2 -2 -2 -2 -1 -1 -0 0 0
-2 -2 -2 -1 -1 -1 -2 -3 -3 -3 -3 -4 -5 -5 -3 -2 -2 -2 -2 -1 -1 -2 -2 -2 -2 -1 -1 -1 -0 -0 -0 -0 -0 -0 -0 -0 -0 -0 -0 0 1 1 1 1
-2 -2 -2 -2 -2 -2 -3 -3 -3 -4 -5 -5 -5 -4 -3 -3 -2 -2 -2 -2 -2 -2 -2 -2 -2 -2 -2 -1 -1 -1 -1 -0 -0 0 0 1 1 1 1 2 2 2 2 2
-2 -2 -2 -2 -2 -2 -3 -4 -5 -6 -6 -5 -5 -4 -3 -3 -2 -2 -2 -2 -3 -3 -3 -3 -3 -3 -3 -2 -2 -2 -2 -1 -1 -0 -0 0 0 1 2 3 3 3 3 3
-1 -2 -2 -2 -2 -3 -4 -5 -6 -6 -6 -5 -5 -4 -3 -3 -2 -2 -2 -2 -2 -2 -3 -3 -3 -3 -2 -2 -2 -2 -2 -2 -1 -1 -0 -0 0 1 1 2 2 2 3 3
-1 -1 -2 -3 -3 -4 -5 -5 -6 -6 -6 -5 -4 -4 -3 -2 -2 -1 -1 -1 -2 -1 -1 -1 -1 -1 -0 -0 -1 -1 -2 -1 -0 0 0 1 1 1 1 2 2 2 2 3
-1 -1 -2 -3 -4 -4 -5 -5 -5 -5 -5 -4 -4 -3 -2 -1 -1 -0 0 0 1 1 1 1 2 2 3 3 2 2 1 2 3 3 3 2 3 3 4 4 4 4 5 6
-1 -1 -2 -3 -3 -4 -5 -5 -5 -5 -4 -4 -3 -2 -1 -0 0 1 2 3 3 3 3 4 4 4 4 5 5 5 5 5 6 6 5 5 5 6 6 7 7 8 9 9
0 -1 -2 -2 -2 -3 -4 -4 -5 -4 -4 -3 -2 -1 -1 -0 0 1 2 3 3 3 3 3 3 4 4 4 4 5 5 5 6 6 6 6 6 6 6 7 7 8 9 9
1 0 -1 -1 -1 -2 -3 -3 -4 -4 -4 -3 -3 -2 -2 -1 -1 -0 0 1 1 1 1 1 2 2 2 2 2 3 3 4 4 4 4 4 5 5 5 5 5 6 6 7
1 1 -0 -1 -1 -1 -2 -2 -3 -3 -3 -3 -3 -3 -3 -2 -2 -2 -1 -1 -1 -0 -0 0 1 1 1 1 2 2 3 4 4 4 4 4 4 5 5 5 5 5 5 6
1 1 0 -0 -1 -1 -1 -1 -2 -3 -3 -3 -3 -3 -3 -3 -2 -2 -2 -1 -1 -0 1 1 2 2 3 3 4 5 6 6 6 6 6 6 6 6 6 6 6 6 6 6
0 0 1 0 -0 -1 -1 -1 -2 -2 -3 -3 -3 -3 -3 -2 -2 -2 -1 -0 1 2 3 4 5 5 6 7 7 8 8 8 8 8 8 7 7 7 7 6 6 6 6 6
0 0 1 1 0 0 -0 -1 -1 -2 -3 -3 -3 -3 -2 -2 -1 -0 1 2 3 4 5 7 8 8 8 9 9 9 9 9 8 8 8 8 7 7 7 7 6 6 6 6
0 0 0 0 1 0 0 -0 -1 -2 -3 -3 -3 -3 -2 -1 -0 1 2 3 5 6 7 8 9 8 8 9 9 9 8 8 8 8 8 7 7 7 7 7 7 7 6 6
0 -0 -0 -0 0 0 0 -0 -1 -2 -2 -3 -2 -2 -1 -0 1 2 3 4 6 7 8 9 8 8 9 9 9 9 9 8 8 8 7 7 7 7 7 8 8 7 6 6
-1 -1 -1 -1 -1 -0 -0 -1 -1 -2 -2 -2 -2 -1 -0 1 2 2 3 4 6 8 9 9 9 9 10 9 9 9 8 8 8 8 8 8 8 8 8 8 8 7 6 5
-1 -1 -1 -2 -1 -1 -1 -1 -2 -2 -2 -2 -2 -1 0 1 2 3 4 5 7 8 9 9 10 11 10 9 8 8 8 8 8 8 8 8 9 9 9 8 8 7 6 5
-3 -3 -3 -2 -2 -2 -2 -2 -2 -2 -2 -2 -2 -1 0 1 3 4 5 6 8 9 9 10 11 11 9 8 8 8 8 8 8 8 8 8 9 9 8 8 7 6 5 5
-4 -4 -3 -3 -3 -3 -3 -3 -2 -2 -2 -2 -1 -1 1 2 3 4 6 7 8 9 10 11 11 10 9 8 8 8 8 8 8 8 8 8 8 8 7 7 6 5 5 4
-5 -4 -4 -4 -3 -3 -3 -3 -3 -3 -2 -2 -1 -0 1 2 3 5 6 7 9 9 10 10 11 10 9 8 8 8 8 8 8 8 8 7 7 7 6 5 5 4 4 4
-5 -5 -4 -4 -3 -3 -3 -3 -3 -3 -2 -2 -1 -0 1 2 3 5 6 7 9 9 9 9 10 9 8 8 8 8 7 8 8 8 7 7 6 6 5 5 4 4 4 4